Walhalla, ND

9:19 AM CDT on September 26, 2017 (GMT -0500)
Walhalla

Weather History for K96D - June, 2013

Change the Weather History Date:

Saturday, June 15, 2013

  Actual Average (KGAF) Record (KGAF)
Temperature  
Mean Temperature 67 °F -  
Max Temperature 77 °F 76 °F 95 °F (1979)
Min Temperature 57 °F 51 °F 38 °F (1961)
Cooling Degree Days 2    
Growing Degree Days 17 (Base 50)    
Moisture  
Dew Point 50 °F    
Average Humidity 58    
Maximum Humidity 100    
Minimum Humidity 29    
Precipitation  
Precipitation 0.00 in - - ()
Sea Level Pressure  
Sea Level Pressure 29.78 in    
Wind  
Wind Speed 10 mph (West)    
Max Wind Speed 21 mph    
Max Gust Speed 34 mph    
Visibility 10 miles    
Events      
Averages and records for this station are not official NWS values.
T = Trace of Precipitation, MM = Missing Value Source: NWS Daily Summary

Daily Weather History Graph

Daily Weather History Graph

Search for Another Location

Airport or City:

Trip Planner

Search our weather history database for the weather conditions in past years. The results will help you decide how hot, cold, wet, or windy it might be!

Date:

Astronomy

Jun. 15, 2013 Rise Set
Actual Time 5:27 AM CDT 9:37 PM CDT
Civil Twilight 4:44 AM CDT 10:20 PM CDT
Nautical Twilight 3:43 AM CDT 11:20 PM CDT
Astronomical Twilight 2:04 AM CDT 12:59 AM CDT
Moon 12:35 PM CDT (6/15) 12:44 AM CDT (6/15)
Length of Visible Light 17h 35m
Length of Day
16h 10m
Waxing Crescent, 40% of the Moon is Illuminated
Jun 15
Waxing Crescent
Jun 16
First Quarter
Jun 23
Full
Jun 29
Last Quarter
Jul 8
New

Hourly Weather History & Observations

Time (CDT) Temp. Dew Point Humidity Pressure Visibility Wind Dir Wind Speed Gust Speed Precip Events Conditions
12:15 AM 64.4 °F 53.6 °F 68% 29.79 in 10.0 mi West 8.1 mph - N/A   Clear
12:35 AM 62.6 °F 53.6 °F 72% 29.79 in 10.0 mi West 4.6 mph - N/A   Clear
12:55 AM 62.6 °F 53.6 °F 72% 29.80 in 10.0 mi West 4.6 mph - N/A   Clear
1:15 AM 60.8 °F 51.8 °F 72% 29.81 in 10.0 mi West 5.8 mph - N/A   Clear
1:35 AM 59.0 °F 51.8 °F 77% 29.82 in 10.0 mi WNW 6.9 mph - N/A   Clear
1:55 AM 59.0 °F 51.8 °F 77% 29.82 in 10.0 mi NW 5.8 mph - N/A   Clear
2:15 AM 57.2 °F 53.6 °F 88% 29.81 in 10.0 mi NW 6.9 mph - N/A   Clear
2:35 AM 57.2 °F 53.6 °F 88% 29.81 in 10.0 mi WNW 8.1 mph - N/A   Clear
2:55 AM 59.0 °F 53.6 °F 82% 29.82 in 10.0 mi West 8.1 mph - N/A   Clear
3:15 AM 59.0 °F 53.6 °F 82% 29.81 in 10.0 mi West 6.9 mph - N/A   Clear
3:35 AM 57.2 °F 51.8 °F 82% 29.81 in 10.0 mi West 9.2 mph - N/A   Clear
3:55 AM 59.0 °F 51.8 °F 77% 29.81 in 10.0 mi West 4.6 mph - N/A   Clear
4:15 AM 57.2 °F 51.8 °F 82% 29.82 in 10.0 mi West 6.9 mph - N/A   Clear
4:35 AM 57.2 °F 51.8 °F 82% 29.81 in 10.0 mi West 6.9 mph - N/A   Clear
4:55 AM 59.0 °F 51.8 °F 77% 29.82 in 10.0 mi West 6.9 mph - N/A   Clear
5:15 AM 59.0 °F 50.0 °F 72% 29.82 in 10.0 mi West 9.2 mph - N/A   Clear
5:35 AM 59.0 °F 48.2 °F 67% 29.81 in 10.0 mi West 9.2 mph 16.1 mph N/A   Clear
5:55 AM 59.0 °F 48.2 °F 67% 29.81 in 10.0 mi West 10.4 mph 18.4 mph N/A   Clear
6:15 AM 59.0 °F 48.2 °F 67% 29.81 in 10.0 mi WSW 9.2 mph 18.4 mph N/A   Clear
6:35 AM 60.8 °F 48.2 °F 63% 29.81 in 10.0 mi West 11.5 mph 26.5 mph N/A   Clear
6:55 AM 62.6 °F 48.2 °F 59% 29.81 in 10.0 mi West 16.1 mph 26.5 mph N/A   Clear
7:15 AM 62.6 °F 48.2 °F 59% 29.80 in 10.0 mi West 17.3 mph 25.3 mph N/A   Clear
7:35 AM 64.4 °F 48.2 °F 56% 29.81 in 10.0 mi West 18.4 mph 29.9 mph N/A   Clear
7:55 AM 64.4 °F 48.2 °F 56% 29.81 in 10.0 mi West 20.7 mph 31.1 mph N/A   Clear
8:15 AM 66.2 °F 48.2 °F 52% 29.81 in 10.0 mi WSW 15.0 mph 26.5 mph N/A   Clear
8:35 AM 68.0 °F 48.2 °F 49% 29.80 in 10.0 mi WSW 16.1 mph 25.3 mph N/A   Clear
8:55 AM 68.0 °F 48.2 °F 49% 29.80 in 10.0 mi West 13.8 mph 25.3 mph N/A   Clear
9:15 AM 68.0 °F 48.2 °F 49% 29.79 in 10.0 mi West 12.7 mph 27.6 mph N/A   Clear
9:35 AM 69.8 °F 48.2 °F 46% 29.78 in 10.0 mi West 12.7 mph 24.2 mph N/A   Clear
9:55 AM 71.6 °F 48.2 °F 43% 29.78 in 10.0 mi West 13.8 mph 25.3 mph N/A   Clear
10:15 AM 71.6 °F 48.2 °F 43% 29.78 in 10.0 mi West 10.4 mph 24.2 mph N/A   Clear
10:35 AM 73.4 °F 46.4 °F 38% 29.78 in 10.0 mi West 16.1 mph 24.2 mph N/A   Clear
10:55 AM 73.4 °F 46.4 °F 38% 29.78 in 10.0 mi West 13.8 mph 23.0 mph N/A   Clear
11:15 AM 73.4 °F 46.4 °F 38% 29.78 in 10.0 mi West 13.8 mph 25.3 mph N/A   Clear
11:35 AM 73.4 °F 44.6 °F 36% 29.77 in 10.0 mi WSW 17.3 mph 26.5 mph N/A   Partly Cloudy
11:55 AM 73.4 °F 42.8 °F 33% 29.78 in 10.0 mi WSW 16.1 mph 27.6 mph N/A   Clear
12:15 PM 75.2 °F 42.8 °F 31% 29.78 in 10.0 mi WSW 11.5 mph 28.8 mph N/A   Clear
12:35 PM 75.2 °F 41.0 °F 29% 29.77 in 10.0 mi West 9.2 mph 27.6 mph N/A   Partly Cloudy
12:55 PM 73.4 °F 41.0 °F 31% 29.77 in 10.0 mi West 12.7 mph 26.5 mph N/A   Partly Cloudy
1:15 PM 75.2 °F 41.0 °F 29% 29.77 in 10.0 mi WSW 10.4 mph 27.6 mph N/A   Partly Cloudy
1:35 PM 77.0 °F 44.6 °F 32% 29.77 in 10.0 mi WSW 17.3 mph 24.2 mph N/A   Partly Cloudy
1:55 PM 75.2 °F 44.6 °F 34% 29.77 in 10.0 mi WSW 13.8 mph 27.6 mph N/A   Clear
2:15 PM 77.0 °F 44.6 °F 32% 29.76 in 10.0 mi WSW 12.7 mph 26.5 mph N/A   Clear
2:35 PM 75.2 °F 44.6 °F 34% 29.76 in 10.0 mi West 15.0 mph 25.3 mph N/A   Partly Cloudy
2:55 PM 75.2 °F 44.6 °F 34% 29.76 in 10.0 mi West 17.3 mph 29.9 mph N/A   Scattered Clouds
3:15 PM 75.2 °F 46.4 °F 36% 29.76 in 10.0 mi West 16.1 mph 27.6 mph N/A   Mostly Cloudy
3:35 PM 75.2 °F 46.4 °F 36% 29.76 in 10.0 mi West 15.0 mph 23.0 mph N/A   Mostly Cloudy
3:55 PM 75.2 °F 46.4 °F 36% 29.76 in 10.0 mi West 18.4 mph 25.3 mph N/A   Scattered Clouds
4:15 PM 75.2 °F 46.4 °F 36% 29.76 in 10.0 mi West 17.3 mph 34.5 mph N/A   Mostly Cloudy
4:35 PM 75.2 °F 46.4 °F 36% 29.75 in 10.0 mi West 16.1 mph 28.8 mph N/A   Mostly Cloudy
4:55 PM 75.2 °F 46.4 °F 36% 29.75 in 10.0 mi West 17.3 mph 25.3 mph N/A   Scattered Clouds
5:15 PM 75.2 °F 46.4 °F 36% 29.75 in 10.0 mi WSW 16.1 mph 27.6 mph N/A   Mostly Cloudy
5:35 PM 73.4 °F 46.4 °F 38% 29.74 in 10.0 mi West 17.3 mph 29.9 mph N/A   Mostly Cloudy
5:55 PM 73.4 °F 46.4 °F 38% 29.74 in 10.0 mi West 13.8 mph 20.7 mph N/A   Mostly Cloudy
6:15 PM 73.4 °F 46.4 °F 38% 29.74 in 10.0 mi West 18.4 mph 26.5 mph N/A   Mostly Cloudy
6:35 PM 73.4 °F 46.4 °F 38% 29.75 in 10.0 mi WNW 15.0 mph 26.5 mph N/A   Mostly Cloudy
6:55 PM 68.0 °F 53.6 °F 60% 29.75 in 10.0 mi WNW 6.9 mph 19.6 mph N/A   Mostly Cloudy
7:15 PM 68.0 °F 50.0 °F 52% 29.75 in 10.0 mi WNW 6.9 mph - N/A   Mostly Cloudy
7:35 PM 68.0 °F 50.0 °F 52% 29.76 in 10.0 mi WNW 8.1 mph - N/A   Mostly Cloudy
7:55 PM 68.0 °F 53.6 °F 60% 29.77 in 10.0 mi North 13.8 mph - N/A   Mostly Cloudy
8:15 PM 64.4 °F 55.4 °F 73% 29.77 in 10.0 mi NNW 9.2 mph - N/A   Partly Cloudy
8:35 PM 66.2 °F 55.4 °F 68% 29.77 in 10.0 mi NW 4.6 mph - N/A   Scattered Clouds
8:55 PM 64.4 °F 55.4 °F 73% 29.77 in 10.0 mi Calm Calm - N/A   Scattered Clouds
9:15 PM 64.4 °F 55.4 °F 73% 29.76 in 10.0 mi Calm Calm - N/A   Partly Cloudy
9:35 PM 62.6 °F 57.2 °F 82% 29.76 in 10.0 mi Calm Calm - N/A   Clear
9:55 PM 62.6 °F 57.2 °F 82% 29.77 in 10.0 mi Calm Calm - N/A   Clear
10:15 PM 59.0 °F 57.2 °F 94% 29.78 in 10.0 mi Calm Calm - N/A   Clear
10:35 PM 59.0 °F 57.2 °F 94% 29.78 in 10.0 mi South 3.5 mph - N/A   Clear
10:55 PM 59.0 °F 59.0 °F 100% 29.78 in 10.0 mi South 3.5 mph - N/A   Clear
11:15 PM 57.2 °F 57.2 °F 100% 29.79 in 10.0 mi Calm Calm - N/A   Clear
11:35 PM 62.6 °F 53.6 °F 72% 29.78 in 10.0 mi West 3.5 mph - N/A   Partly Cloudy
11:55 PM 62.6 °F 51.8 °F 68% 29.79 in 10.0 mi West 10.4 mph 16.1 mph N/A   Mostly Cloudy